Previsão horária em Abla

Hoje, 11 Abril, Domingo

Tempo Temperatura Precipitação Vento Pressão Humidade
00:00 +1°C° 0.1 mm 2 m/s 759 mmHg 99%
01:00 +1°C° 0.4 mm 2 m/s 760 mmHg 99%
02:00 +1°C° 0.4 mm 2 m/s 760 mmHg 99%
03:00 +1°C° 0.4 mm 2 m/s 760 mmHg 99%
04:00 +1°C° 0.2 mm 2 m/s 760 mmHg 99%
05:00 +1°C° 0.2 mm 2 m/s 760 mmHg 99%
06:00 +2°C° 0.2 mm 2 m/s 761 mmHg 99%
07:00 +2°C° 0.6 mm 2 m/s 761 mmHg 99%
08:00 +2°C° 0.6 mm 2 m/s 761 mmHg 99%
09:00 +2°C° 0.6 mm 2 m/s 762 mmHg 99%
10:00 +2°C° 0.6 mm 2 m/s 762 mmHg 99%
11:00 +2°C° 0.6 mm 2 m/s 762 mmHg 99%
12:00 +3°C° 0.6 mm 2 m/s 763 mmHg 99%
13:00 +3°C° 0.1 mm 2 m/s 763 mmHg 98%
14:00 +4°C° 0.1 mm 1 m/s 764 mmHg 98%
15:00 +5°C° 0.1 mm 1 m/s 764 mmHg 98%
16:00 +4°C° 0.1 mm 1 m/s 765 mmHg 98%
17:00 +4°C° 0.1 mm 1 m/s 765 mmHg 98%
18:00 +3°C° 0.1 mm 1 m/s 765 mmHg 99%
19:00 +3°C° 0.1 mm 1 m/s 765 mmHg 98%
20:00 +3°C° 0.1 mm 1 m/s 766 mmHg 98%
21:00 +1°C° 0.1 mm 2 m/s 766 mmHg 97%
22:00 +1°C° 0 mm 2 m/s 766 mmHg 96%
23:00 +1°C° 0 mm 2 m/s 766 mmHg 94%

Amanhã, 12 Abril, Segunda-feira

Tempo Temperatura Precipitação Vento Pressão Humidade
00:00 +1°C° 0 mm 2 m/s 766 mmHg 93%
01:00 +1°C° 0 mm 2 m/s 767 mmHg 92%
02:00 +1°C° 0 mm 2 m/s 767 mmHg 91%
03:00 +1°C° 0 mm 2 m/s 768 mmHg 90%
04:00 +1°C° 0 mm 3 m/s 768 mmHg 89%
05:00 +1°C° 0 mm 3 m/s 768 mmHg 89%
06:00 +1°C° 0 mm 3 m/s 768 mmHg 88%
07:00 +2°C° 0 mm 3 m/s 768 mmHg 88%
08:00 +2°C° 0 mm 3 m/s 768 mmHg 87%
09:00 +3°C° 0 mm 3 m/s 769 mmHg 87%
10:00 +4°C° 0 mm 4 m/s 769 mmHg 85%
11:00 +4°C° 0 mm 4 m/s 768 mmHg 82%
12:00 +5°C° 0 mm 4 m/s 768 mmHg 80%
13:00 +5°C° 0 mm 4 m/s 768 mmHg 80%
14:00 +5°C° 0 mm 4 m/s 768 mmHg 80%
15:00 +5°C° 0 mm 4 m/s 768 mmHg 80%
16:00 +5°C° 0 mm 3 m/s 768 mmHg 82%
17:00 +4°C° 0 mm 3 m/s 768 mmHg 84%
18:00 +3°C° 0 mm 3 m/s 768 mmHg 86%
19:00 +3°C° 0 mm 3 m/s 768 mmHg 87%
20:00 +3°C° 0 mm 3 m/s 768 mmHg 88%
21:00 +3°C° 0 mm 3 m/s 768 mmHg 89%
22:00 +3°C° 0 mm 3 m/s 768 mmHg 90%
23:00 +3°C° 0 mm 3 m/s 767 mmHg 91%

Depois de amanhã, 13 Abril, Terça-feira

Tempo Temperatura Precipitação Vento Pressão Humidade
00:00 +4°C° 0 mm 2 m/s 767 mmHg 92%
01:00 +4°C° 0 mm 2 m/s 767 mmHg 93%
02:00 +4°C° 0 mm 2 m/s 767 mmHg 94%
03:00 +4°C° 0 mm 2 m/s 767 mmHg 94%
04:00 +4°C° 0 mm 2 m/s 767 mmHg 94%
05:00 +5°C° 0 mm 2 m/s 766 mmHg 94%
06:00 +5°C° 0 mm 2 m/s 766 mmHg 94%
07:00 +7°C° 0 mm 2 m/s 766 mmHg 89%
08:00 +9°C° 0 mm 3 m/s 766 mmHg 84%
09:00 +11°C° 0 mm 3 m/s 766 mmHg 79%
10:00 +13°C° 0 mm 3 m/s 766 mmHg 74%
11:00 +14°C° 0 mm 3 m/s 765 mmHg 68%
12:00 +17°C° 0 mm 4 m/s 765 mmHg 63%
13:00 +17°C° 0 mm 4 m/s 765 mmHg 60%
14:00 +17°C° 0 mm 4 m/s 765 mmHg 57%
15:00 +18°C° 0 mm 4 m/s 764 mmHg 55%
16:00 +15°C° 0 mm 4 m/s 764 mmHg 58%
17:00 +14°C° 0 mm 3 m/s 764 mmHg 61%
18:00 +13°C° 0 mm 3 m/s 764 mmHg 64%
19:00 +12°C° 0 mm 3 m/s 764 mmHg 65%
20:00 +10°C° 0 mm 2 m/s 764 mmHg 66%
21:00 +9°C° 0 mm 2 m/s 764 mmHg 66%
22:00 +9°C° 0 mm 2 m/s 763 mmHg 67%
23:00 +8°C° 0 mm 2 m/s 763 mmHg 68%

14 Abril, Quarta-feira

Tempo Temperatura Precipitação Vento Pressão Humidade
00:00 +8°C° 0 mm 2 m/s 763 mmHg 68%
01:00 +7°C° 0 mm 2 m/s 763 mmHg 69%
02:00 +7°C° 0 mm 2 m/s 763 mmHg 70%
03:00 +6°C° 0 mm 2 m/s 763 mmHg 71%
04:00 +7°C° 0 mm 2 m/s 763 mmHg 72%
05:00 +7°C° 0 mm 2 m/s 763 mmHg 72%
06:00 +7°C° 0 mm 2 m/s 763 mmHg 73%
07:00 +9°C° 0 mm 2 m/s 762 mmHg 67%
08:00 +10°C° 0 mm 2 m/s 762 mmHg 62%
09:00 +12°C° 0 mm 3 m/s 762 mmHg 56%
10:00 +14°C° 0 mm 3 m/s 762 mmHg 52%
11:00 +16°C° 0 mm 3 m/s 762 mmHg 48%
12:00 +17°C° 0 mm 3 m/s 761 mmHg 44%
13:00 +18°C° 0 mm 3 m/s 761 mmHg 42%
14:00 +18°C° 0 mm 3 m/s 761 mmHg 41%
15:00 +19°C° 0 mm 3 m/s 760 mmHg 39%
16:00 +17°C° 0 mm 3 m/s 760 mmHg 44%
17:00 +16°C° 0 mm 3 m/s 760 mmHg 49%
18:00 +15°C° 0 mm 2 m/s 759 mmHg 55%
19:00 +14°C° 0 mm 2 m/s 759 mmHg 57%
20:00 +13°C° 0 mm 2 m/s 759 mmHg 60%
21:00 +10°C° 0 mm 2 m/s 759 mmHg 62%
22:00 +10°C° 0 mm 2 m/s 759 mmHg 63%
23:00 +9°C° 0 mm 2 m/s 759 mmHg 63%

15 Abril, Quinta-feira

Tempo Temperatura Precipitação Vento Pressão Humidade
00:00 +8°C° 0 mm 2 m/s 758 mmHg 64%
01:00 +8°C° 0 mm 2 m/s 758 mmHg 64%
02:00 +7°C° 0 mm 2 m/s 758 mmHg 65%
03:00 +7°C° 0 mm 2 m/s 758 mmHg 66%
04:00 +8°C° 0 mm 1 m/s 758 mmHg 66%
05:00 +8°C° 0 mm 1 m/s 757 mmHg 66%
06:00 +8°C° 0 mm 1 m/s 757 mmHg 66%
07:00 +9°C° 0 mm 2 m/s 757 mmHg 60%
08:00 +12°C° 0 mm 2 m/s 757 mmHg 54%
09:00 +14°C° 0 mm 2 m/s 756 mmHg 49%
10:00 +15°C° 0 mm 2 m/s 756 mmHg 45%
11:00 +17°C° 0 mm 3 m/s 756 mmHg 41%
12:00 +18°C° 0 mm 3 m/s 755 mmHg 37%
13:00 +18°C° 0 mm 3 m/s 755 mmHg 36%
14:00 +19°C° 0 mm 3 m/s 754 mmHg 35%
15:00 +19°C° 0 mm 3 m/s 754 mmHg 34%
16:00 +18°C° 0 mm 3 m/s 753 mmHg 40%
17:00 +17°C° 0 mm 2 m/s 753 mmHg 46%
18:00 +16°C° 0 mm 2 m/s 753 mmHg 52%
19:00 +15°C° 0 mm 2 m/s 752 mmHg 56%
20:00 +14°C° 0 mm 2 m/s 752 mmHg 60%
21:00 +12°C° 0 mm 2 m/s 752 mmHg 64%
22:00 +12°C° 0 mm 2 m/s 751 mmHg 67%
23:00 +10°C° 0 mm 2 m/s 751 mmHg 70%

16 Abril, Sexta-feira

Tempo Temperatura Precipitação Vento Pressão Humidade
00:00 +10°C° 0 mm 2 m/s 751 mmHg 73%
01:00 +9°C° 0 mm 2 m/s 750 mmHg 76%
02:00 +8°C° 0 mm 3 m/s 750 mmHg 80%
03:00 +7°C° 0 mm 3 m/s 750 mmHg 83%
04:00 +6°C° 0 mm 4 m/s 750 mmHg 84%
05:00 +5°C° 0 mm 5 m/s 750 mmHg 85%
06:00 +4°C° 0 mm 6 m/s 750 mmHg 85%
07:00 +3°C° 0 mm 6 m/s 751 mmHg 86%
08:00 +3°C° 0 mm 6 m/s 751 mmHg 86%
09:00 +2°C° 0 mm 6 m/s 751 mmHg 86%
10:00 +3°C° 0 mm 6 m/s 751 mmHg 78%
11:00 +4°C° 0 mm 6 m/s 751 mmHg 70%
12:00 +4°C° 0 mm 6 m/s 751 mmHg 61%
13:00 +5°C° 0 mm 7 m/s 751 mmHg 54%
14:00 +6°C° 0 mm 7 m/s 751 mmHg 47%
15:00 +6°C° 0 mm 8 m/s 751 mmHg 40%
16:00 +5°C° 0 mm 8 m/s 751 mmHg 46%
17:00 +4°C° 0 mm 8 m/s 752 mmHg 51%
18:00 +2°C° 0 mm 8 m/s 752 mmHg 56%
19:00 +3°C° 0 mm 7 m/s 752 mmHg 59%
20:00 +2°C° 0 mm 7 m/s 753 mmHg 62%
21:00 0°C° 0 mm 7 m/s 753 mmHg 64%
22:00 0°C° 0 mm 7 m/s 753 mmHg 65%
23:00 -1°C° 0 mm 7 m/s 754 mmHg 65%
Mostrar mais